Location: Huntsville
(41.2590°N, 111.7678°W)
Time: 00:38:29
(UTC+00:00)

Courier 1B Rocket - Pass Details

Date: 15 June 2021
Orbit: 920 x 1202 km, 28.2° (Epoch: 24 July)

Event Time Altitude Azimuth Distance (km) Brightness Sun altitude
Rises 08:34:30 0° 254° (WSW) 3,547 - -23.6°
Reaches altitude 10° 08:38:15 10° 232° (SW) 2,612 - -23.4°
Maximum altitude 08:41:40 15° 198° (SSW) 2,273 - -23.2°
Drops below altitude 10° 08:45:09 10° 165° (SSE) 2,659 - -23.0°
Sets 08:49:02 0° 143° (SE) 3,650 - -22.7°
